Weather History for Presque Isle, ME

Change the Weather History Date:

Sunday, November 24, 2013

  Actual Average Record
Temperature  
Mean Temperature 17 °F -  
Max Temperature 19 °F 34 °F 63 °F (1931)
Min Temperature 15 °F 21 °F -5 °F (1989)
Degree Days  
Heating Degree Days 48    
Moisture  
Dew Point 7 °F    
Average Humidity 63    
Maximum Humidity 73    
Minimum Humidity 53    
Precipitation  
Precipitation 0.00 in - - ()
Sea Level Pressure  
Sea Level Pressure 29.48 in    
Wind  
Wind Speed 15 mph (West)    
Max Wind Speed 24 mph    
Max Gust Speed 37 mph    
Visibility 8 miles    
Events      
Averages and records for this station are not official NWS values.
T = Trace of Precipitation, MM = Missing Value Source: NWS Daily Summary

Daily Weather History Graph

Daily Weather History Graph

Search for Another Location

Airport:

Trip Planner

Search our weather history database for the weather conditions in past years. The results will help you decide how hot, cold, wet, or windy it might be!

Date:

Astronomy

Nov. 24, 2013 Rise Set
Actual Time 6:47 AM EST 3:50 PM EST
Civil Twilight 6:13 AM EST 4:23 PM EST
Nautical Twilight 5:36 AM EST 5:01 PM EST
Astronomical Twilight 5:00 AM EST 5:37 PM EST
Moon 10:24 PM EST (11/24) 11:22 AM EST (11/24)
Length of Visible Light 10h 10m
Length of Day
9h 02m
Waning Gibbous, 61% of the Moon is Illuminated
Nov 24
Waning Gibbous
Nov 25
Last Quarter
Dec 2
New
Dec 9
First Quarter
Dec 17
Full

Hourly Weather History & Observations

Time (EST) Temp. Windchill Dew Point Humidity Pressure Visibility Wind Dir Wind Speed Gust Speed Precip Events Conditions
12:15 AM 19.4 °F 6.0 °F 6.8 °F 58% 29.45 in 10.0 mi West 13.8 mph 20.7 mph N/A   Clear
12:35 AM 17.6 °F 3.7 °F 6.8 °F 63% 29.45 in 10.0 mi West 13.8 mph 19.6 mph N/A   Clear
12:55 AM 17.6 °F 5.0 °F 6.8 °F 63% 29.45 in 10.0 mi WSW 11.5 mph - N/A   Clear
1:15 AM 17.6 °F 6.4 °F 6.8 °F 63% 29.46 in 10.0 mi SW 9.2 mph 17.3 mph N/A   Clear
1:35 AM 17.6 °F 2.7 °F 6.8 °F 63% 29.45 in 10.0 mi West 16.1 mph 21.9 mph N/A   Clear
1:55 AM 17.6 °F 3.7 °F 5.0 °F 58% 29.45 in 10.0 mi WSW 13.8 mph 20.7 mph N/A   Clear
2:15 AM 17.6 °F 5.7 °F 5.0 °F 58% 29.44 in 10.0 mi WSW 10.4 mph 20.7 mph N/A   Clear
2:35 AM 17.6 °F 5.0 °F 5.0 °F 58% 29.44 in 10.0 mi West 11.5 mph 18.4 mph N/A   Scattered Clouds
2:55 AM 17.6 °F 3.2 °F 5.0 °F 58% 29.43 in 10.0 mi West 15.0 mph 20.7 mph N/A   Mostly Cloudy
3:15 AM 17.6 °F 5.7 °F 5.0 °F 58% 29.43 in 10.0 mi WSW 10.4 mph 17.3 mph N/A   Mostly Cloudy
3:35 AM 17.6 °F 7.3 °F 6.8 °F 63% 29.43 in 10.0 mi WSW 8.1 mph 21.9 mph N/A   Mostly Cloudy
3:55 AM 17.6 °F 3.7 °F 6.8 °F 63% 29.42 in 10.0 mi West 13.8 mph 20.7 mph N/A   Overcast
4:15 AM 17.6 °F 5.0 °F 6.8 °F 63% 29.42 in 10.0 mi WSW 11.5 mph - N/A   Overcast
4:35 AM 17.6 °F 3.2 °F 6.8 °F 63% 29.41 in 10.0 mi West 15.0 mph 19.6 mph N/A   Scattered Clouds
4:55 AM 17.6 °F 5.0 °F 6.8 °F 63% 29.41 in 10.0 mi West 11.5 mph - N/A   Partly Cloudy
5:15 AM 17.6 °F 6.4 °F 6.8 °F 63% 29.41 in 10.0 mi West 9.2 mph - N/A   Scattered Clouds
5:35 AM 15.8 °F 2.7 °F 6.8 °F 68% 29.41 in 10.0 mi West 11.5 mph - N/A   Partly Cloudy
5:55 AM 15.8 °F 4.2 °F 6.8 °F 68% 29.41 in 10.0 mi West 9.2 mph - N/A   Clear
6:15 AM 17.6 °F 6.4 °F 8.6 °F 68% 29.40 in 5.0 mi West 9.2 mph - N/A   Mostly Cloudy
6:35 AM 17.6 °F 10.7 °F 10.4 °F 73% 29.40 in 5.0 mi West 4.6 mph - N/A   Overcast
6:55 AM 17.6 °F 10.7 °F 10.4 °F 73% 29.41 in 3.0 mi WNW 4.6 mph - N/A   Overcast
7:15 AM 17.6 °F 2.2 °F 8.6 °F 68% 29.40 in 10.0 mi WNW 17.3 mph 21.9 mph N/A   Overcast
7:35 AM 17.6 °F 1.7 °F 6.8 °F 63% 29.40 in 10.0 mi WNW 18.4 mph 31.1 mph N/A   Mostly Cloudy
7:55 AM 17.6 °F 2.7 °F 5.0 °F 58% 29.41 in 10.0 mi WNW 16.1 mph 26.5 mph N/A   Mostly Cloudy
8:15 AM 17.6 °F 3.2 °F 5.0 °F 58% 29.41 in 10.0 mi West 15.0 mph - N/A   Overcast
8:35 AM 17.6 °F 1.7 °F 6.8 °F 63% 29.42 in 10.0 mi WNW 18.4 mph 24.2 mph N/A   Mostly Cloudy
8:55 AM 17.6 °F 3.2 °F 6.8 °F 63% 29.42 in 3.0 mi West 15.0 mph 24.2 mph N/A   Mostly Cloudy
9:15 AM 17.6 °F 1.3 °F 6.8 °F 63% 29.42 in 4.0 mi West 19.6 mph 25.3 mph N/A   Overcast
9:35 AM 17.6 °F 2.2 °F 8.6 °F 68% 29.42 in 2.0 mi West 17.3 mph 20.7 mph N/A   Overcast
9:55 AM 17.6 °F 3.2 °F 8.6 °F 68% 29.43 in 1.8 mi West 15.0 mph 18.4 mph N/A   Overcast
10:15 AM 17.6 °F 3.7 °F 8.6 °F 68% 29.43 in 1.8 mi West 13.8 mph 20.7 mph N/A   Overcast
10:35 AM 17.6 °F 5.0 °F 8.6 °F 68% 29.42 in 1.8 mi West 11.5 mph 19.6 mph N/A   Overcast
10:55 AM 17.6 °F 5.0 °F 8.6 °F 68% 29.42 in 1.2 mi WNW 11.5 mph 20.7 mph N/A   Overcast
11:15 AM 17.6 °F 0.9 °F 8.6 °F 68% 29.43 in 1.5 mi West 20.7 mph 26.5 mph N/A   Overcast
11:35 AM 17.6 °F 2.7 °F 8.6 °F 68% 29.43 in 1.5 mi WNW 16.1 mph 26.5 mph N/A   Overcast
11:55 AM 17.6 °F 5.0 °F 8.6 °F 68% 29.43 in 1.2 mi WNW 11.5 mph 23.0 mph N/A   Overcast
12:15 PM 17.6 °F 3.7 °F 8.6 °F 68% 29.43 in 1.8 mi WNW 13.8 mph 23.0 mph N/A   Overcast
12:35 PM 17.6 °F 3.7 °F 6.8 °F 63% 29.43 in 2.0 mi WNW 13.8 mph 28.8 mph N/A   Overcast
12:55 PM 19.4 °F 5.0 °F 6.8 °F 58% 29.44 in 5.0 mi WNW 16.1 mph 29.9 mph N/A   Overcast
1:15 PM 19.4 °F 3.2 °F 5.0 °F 54% 29.44 in 9.0 mi WNW 20.7 mph 31.1 mph N/A   Overcast
1:35 PM 19.4 °F 4.5 °F 5.0 °F 54% 29.44 in 9.0 mi WNW 17.3 mph 32.2 mph N/A   Overcast
1:55 PM 17.6 °F 1.7 °F 3.2 °F 53% 29.45 in 9.0 mi WNW 18.4 mph 29.9 mph N/A   Overcast
2:15 PM 17.6 °F 0.9 °F 5.0 °F 58% 29.46 in 5.0 mi WNW 20.7 mph 29.9 mph N/A   Overcast
2:35 PM 17.6 °F 0.9 °F 6.8 °F 63% 29.47 in 4.0 mi WNW 20.7 mph 32.2 mph N/A   Overcast
2:55 PM 17.6 °F 2.7 °F 6.8 °F 63% 29.48 in 8.0 mi WNW 16.1 mph 29.9 mph N/A   Overcast
3:15 PM 17.6 °F 2.2 °F 5.0 °F 58% 29.49 in 10.0 mi WNW 17.3 mph 28.8 mph N/A   Overcast
3:35 PM 17.6 °F 4.3 °F 6.8 °F 63% 29.49 in 10.0 mi West 12.7 mph 23.0 mph N/A   Overcast
3:55 PM 17.6 °F 3.2 °F 6.8 °F 63% 29.50 in 10.0 mi WNW 15.0 mph 27.6 mph N/A   Overcast
4:15 PM 17.6 °F 1.3 °F 8.6 °F 68% 29.51 in 10.0 mi West 19.6 mph 27.6 mph N/A   Overcast
4:35 PM 17.6 °F 1.3 °F 8.6 °F 68% 29.52 in 8.0 mi WNW 19.6 mph 25.3 mph N/A   Overcast
4:55 PM 17.6 °F 1.7 °F 6.8 °F 63% 29.53 in 10.0 mi WNW 18.4 mph 28.8 mph N/A   Mostly Cloudy
5:15 PM 17.6 °F 1.7 °F 6.8 °F 63% 29.53 in 10.0 mi WNW 18.4 mph 26.5 mph N/A   Scattered Clouds
5:35 PM 17.6 °F -0.3 °F 6.8 °F 63% 29.53 in 10.0 mi West 24.2 mph 33.4 mph N/A   Mostly Cloudy
5:55 PM 17.6 °F -0.3 °F 6.8 °F 63% 29.54 in 10.0 mi West 24.2 mph 29.9 mph N/A   Mostly Cloudy
6:15 PM 17.6 °F 0.9 °F 6.8 °F 63% 29.55 in 10.0 mi WNW 20.7 mph 28.8 mph N/A   Mostly Cloudy
6:35 PM 17.6 °F 1.3 °F 5.0 °F 58% 29.55 in 10.0 mi West 19.6 mph 28.8 mph N/A   Partly Cloudy
6:55 PM 17.6 °F 0.1 °F 6.8 °F 63% 29.56 in 10.0 mi West 23.0 mph 33.4 mph N/A   Clear
7:15 PM 17.6 °F 0.5 °F 6.8 °F 63% 29.56 in 10.0 mi WNW 21.9 mph 28.8 mph N/A   Scattered Clouds
7:35 PM 17.6 °F 0.5 °F 6.8 °F 63% 29.57 in 10.0 mi West 21.9 mph 35.7 mph N/A   Mostly Cloudy
7:55 PM 17.6 °F -0.3 °F 6.8 °F 63% 29.57 in 10.0 mi West 24.2 mph 36.8 mph N/A   Mostly Cloudy
8:15 PM 17.6 °F 0.5 °F 5.0 °F 58% 29.57 in 10.0 mi West 21.9 mph 32.2 mph N/A   Mostly Cloudy
8:35 PM 17.6 °F 0.9 °F 5.0 °F 58% 29.57 in 10.0 mi WNW 20.7 mph 32.2 mph N/A   Overcast
8:55 PM 17.6 °F 1.7 °F 6.8 °F 63% 29.58 in 10.0 mi WNW 18.4 mph 34.5 mph N/A   Overcast
9:15 PM 17.6 °F 0.1 °F 6.8 °F 63% 29.58 in 10.0 mi WNW 23.0 mph 29.9 mph N/A   Overcast
9:35 PM 17.6 °F 0.5 °F 6.8 °F 63% 29.59 in 10.0 mi West 21.9 mph 29.9 mph N/A   Mostly Cloudy
9:55 PM 17.6 °F 1.7 °F 6.8 °F 63% 29.59 in 10.0 mi West 18.4 mph 24.2 mph N/A   Overcast
10:15 PM 17.6 °F 0.9 °F 6.8 °F 63% 29.60 in 10.0 mi West 20.7 mph 31.1 mph N/A   Overcast
10:35 PM 17.6 °F 0.9 °F 8.6 °F 68% 29.61 in 10.0 mi West 20.7 mph 28.8 mph N/A   Overcast
10:55 PM 17.6 °F 0.1 °F 8.6 °F 68% 29.62 in 10.0 mi WNW 23.0 mph 27.6 mph N/A   Overcast
11:15 PM 17.6 °F 0.9 °F 8.6 °F 68% 29.63 in 10.0 mi WNW 20.7 mph 27.6 mph N/A   Overcast
11:35 PM 17.6 °F 1.7 °F 8.6 °F 68% 29.64 in 10.0 mi WNW 18.4 mph 28.8 mph N/A   Overcast
11:55 PM 17.6 °F 0.1 °F 6.8 °F 63% 29.64 in 10.0 mi WNW 23.0 mph 32.2 mph N/A   Overcast